Change the Weather History Date:

Thursday, November 7, 2013

  Actual Average (KWRL) Record (KWRL)
Temperature  
Mean Temperature 32 °F 36 °F  
Max Temperature 37 °F 50 °F 73 °F (1999)
Min Temperature 26 °F 22 °F 5 °F (2003)
Degree Days  
Heating Degree Days 34 29  
Month to date heating degree days 194  
Since 1 July heating degree days 1056  
Cooling Degree Days 0 0  
Month to date cooling degree days 0  
Year to date cooling degree days 535  
Moisture  
Dew Point 24 °F    
Average Humidity 71    
Maximum Humidity 81    
Minimum Humidity 55    
Precipitation  
Precipitation 0.00 in 0.01 in 0.21 in (1998)
Month to date precipitation 0.09  
Year to date precipitation 7.08  
Sea Level Pressure  
Sea Level Pressure 30.22 in    
Wind  
Wind Speed 13 mph (SE)    
Max Wind Speed 22 mph    
Max Gust Speed 26 mph    
Visibility 10 miles    
Events      
T = Trace of Precipitation, MM = Missing Value Source: NWS Daily Summary

Daily Weather History Graph

Daily Weather History Graph

Search for Another Location

Airport or City:

Trip Planner

Search our weather history database for the weather conditions in past years. The results will help you decide how hot, cold, wet, or windy it might be!

Date:

Astronomy

Nov. 07, 2013 Rise Set
Actual Time 6:56 AM MST 4:56 PM MST
Civil Twilight 6:26 AM MST 5:26 PM MST
Nautical Twilight 5:52 AM MST 6:00 PM MST
Astronomical Twilight 5:18 AM MST 6:33 PM MST
Moon 11:09 AM MST (11/7) 9:10 PM MST (11/7)
Length of Visible Light 11h 00m
Length of Day
9h 59m
Waxing Crescent, 23% of the Moon is Illuminated
Nov 7
Waxing Crescent
Nov 9
First Quarter
Nov 17
Full
Nov 25
Last Quarter
Dec 2
New

Hourly Weather History & Observations

Time (MST) Temp. Windchill Dew Point Humidity Pressure Visibility Wind Dir Wind Speed Gust Speed Precip Events Conditions
12:15 AM 30.2 °F 20.8 °F 15.8 °F 55% 30.36 in 10.0 mi SE 11.5 mph 16.1 mph N/A   Unknown
12:35 AM 28.4 °F 19.7 °F 17.6 °F 64% 30.36 in 10.0 mi SE 9.2 mph - N/A   Unknown
12:55 AM 28.4 °F 18.0 °F 17.6 °F 64% 30.35 in 10.0 mi ESE 12.7 mph - N/A   Unknown
1:15 AM 28.4 °F 18.0 °F 19.4 °F 69% 30.34 in 10.0 mi SE 12.7 mph - N/A   Unknown
1:35 AM 26.6 °F 14.7 °F 19.4 °F 74% 30.33 in 10.0 mi SE 15.0 mph - N/A   Unknown
1:55 AM 26.6 °F 15.2 °F 19.4 °F 74% 30.33 in 10.0 mi SE 13.8 mph - N/A   Unknown
2:15 AM 26.6 °F 13.8 °F 19.4 °F 74% 30.33 in 10.0 mi SE 17.3 mph - N/A   Unknown
2:35 AM 28.4 °F 18.0 °F 19.4 °F 69% 30.34 in 10.0 mi SE 12.7 mph - N/A   Unknown
2:55 AM 30.2 °F 20.8 °F 19.4 °F 64% 30.34 in 10.0 mi SE 11.5 mph - N/A   Unknown
3:15 AM 30.2 °F 20.2 °F 19.4 °F 64% 30.34 in 10.0 mi SSE 12.7 mph 16.1 mph N/A   Unknown
3:35 AM 28.4 °F 19.1 °F 19.4 °F 69% 30.33 in 10.0 mi SE 10.4 mph 17.3 mph N/A   Unknown
3:55 AM 30.2 °F 19.8 °F 19.4 °F 64% 30.33 in 10.0 mi SSE 13.8 mph - N/A   Unknown
4:15 AM 30.2 °F 20.8 °F 19.4 °F 64% 30.34 in 10.0 mi SSE 11.5 mph - N/A   Unknown
4:35 AM 30.2 °F 25.4 °F 19.4 °F 64% 30.35 in 10.0 mi SE 4.6 mph - N/A   Unknown
4:55 AM 32.0 °F 23.6 °F 19.4 °F 60% 30.34 in 10.0 mi SSE 10.4 mph - N/A   Unknown
5:15 AM 32.0 °F 22.5 °F 21.2 °F 64% 30.35 in 10.0 mi South 12.7 mph - N/A   Unknown
5:35 AM 32.0 °F 25.6 °F 19.4 °F 60% 30.35 in 10.0 mi SSE 6.9 mph - N/A   Unknown
5:55 AM 32.0 °F 24.8 °F 19.4 °F 60% 30.35 in 10.0 mi SSE 8.1 mph - N/A   Unknown
6:15 AM 32.0 °F 23.6 °F 21.2 °F 64% 30.35 in 10.0 mi South 10.4 mph 16.1 mph N/A   Unknown
6:35 AM 32.0 °F 25.6 °F 21.2 °F 64% 30.34 in 10.0 mi South 6.9 mph - N/A   Unknown
6:55 AM 32.0 °F 25.6 °F 19.4 °F 60% 30.35 in 10.0 mi SSE 6.9 mph - N/A   Unknown
7:15 AM 30.2 °F 24.3 °F 19.4 °F 64% 30.35 in 10.0 mi SSE 5.8 mph - N/A   Unknown
7:35 AM 30.2 °F 21.9 °F 19.4 °F 64% 30.35 in 10.0 mi SSE 9.2 mph - N/A   Unknown
7:55 AM 28.4 °F 19.7 °F 21.2 °F 74% 30.35 in 10.0 mi SE 9.2 mph - N/A   Unknown
8:15 AM 28.4 °F 17.0 °F 21.2 °F 74% 30.34 in 10.0 mi SE 15.0 mph - N/A   Unknown
8:35 AM 28.4 °F 17.0 °F 21.2 °F 74% 30.34 in 10.0 mi SE 15.0 mph 19.6 mph N/A   Unknown
8:55 AM 28.4 °F 18.5 °F 21.2 °F 74% 30.34 in 10.0 mi SE 11.5 mph - N/A   Unknown
9:15 AM 28.4 °F 16.6 °F 23.0 °F 80% 30.34 in 10.0 mi SE 16.1 mph - N/A   Unknown
9:35 AM 28.4 °F 16.6 °F 23.0 °F 80% 30.33 in 10.0 mi SE 16.1 mph - N/A   Unknown
9:55 AM 28.4 °F 18.0 °F 21.2 °F 74% 30.33 in 10.0 mi SE 12.7 mph - N/A   Unknown
10:15 AM 30.2 °F 19.8 °F 21.2 °F 69% 30.32 in 10.0 mi SSE 13.8 mph - N/A   Unknown
10:35 AM 32.0 °F 21.2 °F 19.4 °F 60% 30.32 in 10.0 mi SSE 16.1 mph - N/A   Unknown
10:55 AM 32.0 °F 23.0 °F 21.2 °F 64% 30.32 in 10.0 mi SSE 11.5 mph - N/A   Unknown
11:15 AM 32.0 °F 22.5 °F 21.2 °F 64% 30.32 in 10.0 mi SE 12.7 mph - N/A   Unknown
11:35 AM 33.8 °F 23.5 °F 21.2 °F 60% 30.30 in 10.0 mi ESE 16.1 mph - N/A   Unknown
11:55 AM 32.0 °F 20.1 °F 23.0 °F 69% 30.28 in 10.0 mi SE 19.6 mph - N/A   Unknown
12:15 PM 32.0 °F 21.2 °F 23.0 °F 69% 30.26 in 10.0 mi SE 16.1 mph - N/A   Unknown
12:35 PM 32.0 °F 19.5 °F 23.0 °F 69% 30.25 in 10.0 mi SE 21.9 mph - N/A   Unknown
12:55 PM 32.0 °F 20.5 °F 24.8 °F 75% 30.24 in 10.0 mi SE 18.4 mph - N/A   Unknown
1:15 PM 32.0 °F 20.8 °F 26.6 °F 80% 30.23 in 10.0 mi SE 17.3 mph - N/A   Unknown
1:35 PM 33.8 °F 22.8 °F 28.4 °F 81% 30.22 in 10.0 mi SE 18.4 mph - N/A   Unknown
1:55 PM 35.6 °F 25.5 °F 28.4 °F 75% 30.21 in 10.0 mi ESE 17.3 mph 23.0 mph N/A   Unknown
2:15 PM 37.4 °F 28.2 °F 30.2 °F 75% 30.20 in 10.0 mi SE 16.1 mph - N/A   Unknown
2:35 PM 37.4 °F 28.2 °F 30.2 °F 75% 30.19 in 10.0 mi SE 16.1 mph - N/A   Unknown
2:55 PM 37.4 °F 27.5 °F 30.2 °F 75% 30.18 in 10.0 mi ESE 18.4 mph - N/A   Unknown
3:15 PM 37.4 °F 28.2 °F 30.2 °F 75% 30.18 in 10.0 mi SE 16.1 mph - N/A   Unknown
3:55 PM 37.4 °F 27.5 °F 30.2 °F 75% 30.16 in 10.0 mi ESE 18.4 mph - N/A   Unknown
4:15 PM 37.4 °F 28.2 °F 30.2 °F 75% 30.15 in 10.0 mi ESE 16.1 mph - N/A   Unknown
4:35 PM 37.4 °F 27.8 °F 30.2 °F 75% 30.14 in 10.0 mi SE 17.3 mph - N/A   Unknown
4:55 PM 37.4 °F 28.2 °F 30.2 °F 75% 30.13 in 10.0 mi SE 16.1 mph - N/A   Unknown
5:15 PM 37.4 °F 29.3 °F 30.2 °F 75% 30.12 in 10.0 mi SE 12.7 mph - N/A   Unknown
5:35 PM 37.4 °F 28.2 °F 30.2 °F 75% 30.11 in 10.0 mi SE 16.1 mph - N/A   Unknown
5:55 PM 37.4 °F 29.8 °F 30.2 °F 75% 30.10 in 10.0 mi SE 11.5 mph - N/A   Unknown
6:15 PM 37.4 °F 29.8 °F 30.2 °F 75% 30.09 in 10.0 mi SSE 11.5 mph - N/A   Unknown
6:35 PM 35.6 °F 27.1 °F 30.2 °F 81% 30.08 in 10.0 mi SE 12.7 mph - N/A   Unknown
6:55 PM 37.4 °F 28.9 °F 30.2 °F 75% 30.08 in 10.0 mi SE 13.8 mph - N/A   Unknown
7:15 PM 35.6 °F 25.2 °F 30.2 °F 81% 30.06 in 10.0 mi SE 18.4 mph - N/A   Unknown
7:35 PM 35.6 °F 26.2 °F 28.4 °F 75% 30.06 in 10.0 mi SE 15.0 mph - N/A   Unknown
7:55 PM 33.8 °F 24.3 °F 28.4 °F 81% 30.04 in 10.0 mi SE 13.8 mph 17.3 mph N/A   Unknown
8:15 PM 35.6 °F 26.2 °F 28.4 °F 75% 30.03 in 10.0 mi SSE 15.0 mph 23.0 mph N/A   Unknown
8:35 PM 37.4 °F 28.5 °F 28.4 °F 70% 30.02 in 10.0 mi SE 15.0 mph 26.5 mph N/A   Unknown
8:55 PM 35.6 °F 27.1 °F 28.4 °F 75% 30.02 in 10.0 mi SE 12.7 mph - N/A   Unknown
9:15 PM 35.6 °F 27.1 °F 28.4 °F 75% 30.01 in 10.0 mi SE 12.7 mph - N/A   Unknown
9:35 PM 35.6 °F 27.1 °F 28.4 °F 75% 30.00 in 10.0 mi SE 12.7 mph - N/A   Unknown
9:55 PM 35.6 °F 26.2 °F 28.4 °F 75% 29.98 in 10.0 mi SE 15.0 mph - N/A   Unknown
10:15 PM 33.8 °F 22.8 °F 28.4 °F 81% 29.97 in 10.0 mi SE 18.4 mph - N/A   Unknown
10:35 PM 35.6 °F 26.2 °F 28.4 °F 75% 29.97 in 10.0 mi SE 15.0 mph - N/A   Unknown
10:55 PM 37.4 °F 28.5 °F 30.2 °F 75% 29.95 in 10.0 mi SE 15.0 mph - N/A   Unknown
11:15 PM 35.6 °F 28.0 °F 30.2 °F 81% 29.95 in 10.0 mi ESE 10.4 mph - N/A   Unknown
11:35 PM 37.4 °F 30.3 °F 30.2 °F 75% 29.94 in 10.0 mi ESE 10.4 mph - N/A   Unknown
11:55 PM 35.6 °F 26.2 °F 30.2 °F 81% 29.92 in 10.0 mi SE 15.0 mph - N/A   Unknown